NOAA 16 DEB

Satellite information

Favourite Embed

Satellite Type and Status

DEBRISIN ORBIT

Key statistics

Satellite NOAA 16 DEB at a glance.

Uptime

8995

Days in orbit

Revolutions

≈ 14.2

Per day

Orbit

SSO

Sun Synchronous Orbit

Inclination

98.7

Latest

Satellite identification and parameters

Extended collection of information and parameters for NOAA 16 DEB.

Object identification

Identified? True

Debris? True

Object name: NOAA 16 DEB

International designator: 2000-055GM

Object number (NORAD): 41285

Object ID (CCSDS): 41285

Country: UNITED STATES OF AMERICA (US)

Current information (Y/N): Y

RCS size: SMALL

Orbital parameters

Period: 101.121 minutes

Inclination: 98.686 deg

SMA: 7189.892 km

Apoapsis: 850.603 km

Periapsis: 772.912 km

RAAN: 191.3037 deg

Eccentricy: 0.0054028

Argument of periapsis: 117.4975 deg

Mean anomaly: 243.1709 deg

Mean motion: 14.24030162 rev/day

Mean motion (dot): 0.00005007 rev/day2

B* drag term: 0.0021641 1/REarth

Two-line elements (TLE)

Creation date: May 6, 2025, 2:36 p.m.

Reference frame: TEME

Reference center: EARTH

Epoch: May 5, 2025, 2:52 a.m. UTC

TLE line 0: 0 NOAA 16 DEB

TLE line 1: 1 41285U 00055GM 25125.11957876 .00005007 00000-0 21641-2 0 9997

TLE line 2: 2 41285 98.6860 191.3037 0054028 117.4975 243.1709 14.24030162483347

Live tracking on map

Real-time ground track for satellite NOAA 16 DEB.

In-orbit conjunctions

A list of the most updated potential collisions computed for object NOAA 16 DEB.

Target Orbit TCA Probability of collision Miss distance Type
FENGYUN 1C DEB SSO 2025-02-12 03:30:45 0.0001104148 66.0 (m) DEBRIS

Associated space launch

The NOAA K, L and M POES satellites begin the fifth generation of improved environmental monitoring in support of NOAA missions. The instrument payload has significant improvements and additions/deletions. The instrument changes have effected the spacecraft subsystems and data formats.

NOAA 16 DEB was lifted into orbit during the mission ‘Titan II SLV | NOAA 16’, on board a Titan II SLV space rocket.

The launch took place on Sept. 21, 2000, 10:22 a.m. from Space Launch Complex 4W.

For more information about the launch, click the button.

Launch to space Titan II SLV | NOAA 16
Titan II SLV | NOAA 16

Agency: N/A

Status: Launch Successful

Launch date: Sept. 21, 2000, 10:22 a.m. UTC

Rocket: Titan II SLV

Launch pad: Space Launch Complex 4W

Location: Vandenberg SFB, CA, USA

...

Latest news about this satellite

There are no fresh news available about this satellite. Check back as we update our databases every day.


Newsletter sign-up

Weekly statistics, charts and insights to help you stay on top of the space industry.